Flag for Singapore Weather past 2 weeks in Singapore, Singapore

Now
88 °F

Partly sunny.


Feels Like: 100 °F
Forecast: 77 / 90 °F
Wind: 5 mph from Southeast

Location: Singapore / Paya Lebar

Current Time: Aug 28, 2015 at 10:35:24 AM

Latest Report: Aug 28, 2015 at 10:00 AM


Visibility: 5 mi

Pressure: 29.89 "Hg

Humidity: 70%

Dew point: 77 °F

Location of SingaporeLocation

Historic Weather in Singapore — Graph

°F

Singapore temperature yesterday

Maximum temperature yesterday: 91 °F (at 3:00 PM)
Minimum temperature yesterday: 79 °F (at 5:00 AM)
Average temperature yesterday: 86 °F

Past Weeks' High & Low Weather Summary

 TemperatureHumidityPressure
High93 °F (Aug 14, 2:00 PM)94% (Aug 27, 5:00 AM)29.92 "Hg (Aug 27, 5:00 AM)
Low79 °F (Aug 27, 5:00 AM)44% (Aug 18, 5:00 PM)29.74 "Hg (Aug 22, 4:00 PM)
Average85 °F74%29.84 "Hg
* Reported Aug 13 9:00 AM — Aug 28 9:00 AM, Singapore, Weather by CustomWeather, © 2015

Note: Actual official high and low records may vary slightly from our data, if they occured in-between our weather recording intervals... More about our weather records

Advertising

Singapore weather history for previous 24 hours

 ConditionsComfort  
Time TempWeatherWind HumidityBarometerVisibility
9:00 AM
Fri, Aug 28
84 °FBroken clouds.6 mph79%29.89 "Hg5 mi
8:00 AM82 °FPartly sunny.1 mph84%29.86 "Hg4 mi
7:00 AM81 °FPassing clouds.No wind84%29.83 "Hg4 mi
6:00 AM81 °FPassing clouds.No wind84%29.83 "Hg6 mi
5:00 AM82 °FPassing clouds.2 mph79%29.83 "Hg6 mi
11:00 PM
Thu, Aug 27
84 °FPassing clouds.6 mph74%29.86 "HgN/A
10:00 PM84 °FPartly cloudy.8 mph74%29.86 "HgN/A
9:00 PM84 °FPassing clouds.8 mph74%29.83 "HgN/A
8:00 PM86 °FPartly cloudy.6 mph75%29.83 "HgN/A
7:00 PM88 °FPartly sunny.8 mph66%29.80 "HgN/A
6:00 PM90 °FPartly sunny.7 mph63%29.77 "HgN/A
5:00 PM90 °FPartly sunny.9 mph67%29.77 "HgN/A
4:00 PM90 °FPartly sunny.10 mph67%29.80 "HgN/A
3:00 PM91 °FBroken clouds.8 mph63%29.80 "HgN/A
2:00 PM90 °FPartly sunny.9 mph67%29.83 "HgN/A
1:00 PM90 °FPartly sunny.9 mph63%29.86 "HgN/A
12:00 PM90 °FPartly sunny.8 mph59%29.89 "HgN/A
11:00 AM88 °FPartly sunny.9 mph66%29.86 "HgN/A
10:00 AM86 °FPartly sunny.9 mph75%29.89 "HgN/A
Weather by CustomWeather, © 2015

See weather overviewHow to use our weather pages